Location: Lawrence
(38.9720°N, 95.2350°W)
Time: 11:35:39
(UTC-05:00)

Amateur Radio Satellites - All Passes

Search period start: 01 April 2015 11:05
Search period end: 02 April 2015 11:05
Location: Lawrence, 38.9720°N, 95.2350°W

Satellite Date Start Highest point End Downlink Frequencies (MHz)
Time Altitude Azimuth
ANTELSAT 01 Apr 11:09:12 11:13:28 81° 78° (ENE) 11:17:50 437.575/2403.000
VELOX 1 01 Apr 11:09:43 11:12:08 15° 91° (E) 11:14:45 145.980
CUBEBUG 2 01 Apr 11:10:29 11:14:59 81° 102° (ESE) 11:19:36 437.445
POPSAT HIP 1 01 Apr 11:12:28 11:16:26 42° 73° (ENE) 11:20:26 437.405
BEESAT 3 01 Apr 11:14:39 11:18:02 23° 312° (NW) 11:21:22 437.485
AISAT 01 Apr 11:15:24 11:18:21 18° 92° (E) 11:21:27 437.250
AAUSAT CUBESAT 2 01 Apr 11:16:04 11:19:49 30° 289° (WNW) 11:23:30 437.432
CINEMA 3 01 Apr 11:20:13 11:24:29 43° 286° (WNW) 11:28:53 145.822/145.860
NANOSAT C BR1 01 Apr 11:21:32 11:25:38 54° 74° (ENE) 11:29:45 145.865
HUMSAT D 01 Apr 11:25:42 11:29:41 37° 97° (E) 11:33:42 437.325/437.525
POLYITAN 1 01 Apr 11:28:41 11:32:51 69° 76° (ENE) 11:37:03 437.675
SEEDS 01 Apr 11:29:12 11:32:02 17° 292° (WNW) 11:34:43 437.485
PHONESAT 2.4 01 Apr 11:30:33 11:33:03 18° 212° (SSW) 11:35:31 2401.200-2431.200
50 SAT 01 Apr 11:34:53 11:38:26 29° 96° (E) 11:42:02 437.505
UKube-1 01 Apr 11:36:52 11:41:11 69° 102° (ESE) 11:45:28 .
COMPASS 1 01 Apr 11:47:19 11:49:26 13° 294° (WNW) 11:51:20 437.405
DX 1 01 Apr 11:51:27 11:55:48 76° 285° (WNW) 12:00:06 434.975-435.025
ESTCUBE 1 01 Apr 11:55:20 11:59:02 25° 94° (E) 12:02:48 437.505/2401.250
DUCHIFAT 1 01 Apr 12:04:00 12:08:04 46° 261° (W) 12:12:08 145.980
QB50P1 01 Apr 12:04:06 12:08:10 45° 261° (W) 12:12:13 145.935-145.965
Oscar 11 01 Apr 12:06:10 12:09:25 20° 292° (WNW) 12:12:34 145.826/435.025
UNISAT 6 01 Apr 12:06:12 12:09:39 23° 266° (W) 12:13:03 437.425
DELFI C3 01 Apr 12:11:21 12:14:25 20° 291° (WNW) 12:17:23 145.870
AIST 2 01 Apr 12:12:29 12:15:53 22° 313° (NW) 12:19:13 435.215
TIGRISAT 01 Apr 12:15:19 12:18:25 19° 268° (W) 12:21:26 435.000
QB50P2 01 Apr 12:20:34 12:24:17 29° 264° (W) 12:27:57 145.880/145.840
FUNcube-1 01 Apr 12:22:46 12:26:28 26° 290° (WNW) 12:30:07 145.935
BUGSAT 1 01 Apr 12:30:07 12:33:52 31° 263° (W) 12:37:32 437.445
HO-68 01 Apr 12:32:10 12:35:27 13° 306° (NW) 12:38:19 435.675
SPROUT 01 Apr 12:32:46 12:34:57 14° 90° (E) 12:37:21 437.525
CUBEBUG 1 01 Apr 12:35:00 12:39:18 62° 101° (E) 12:43:34 437.445
UWE-3 01 Apr 12:36:35 12:39:20 16° 293° (WNW) 12:41:56 435.000/436.395/437.385
ZACube-1 01 Apr 12:37:28 12:40:33 18° 292° (WNW) 12:43:33 437.345
Oscar 19 01 Apr 12:43:48 12:46:37 15° 64° (ENE) 12:49:39 437.125/150
VELOX 1 01 Apr 12:44:48 12:49:02 45° 287° (WNW) 12:53:13 145.980
POPSAT HIP 1 01 Apr 12:50:09 12:52:36 15° 269° (W) 12:54:51 437.405
AISAT 01 Apr 12:51:03 12:55:08 38° 289° (WNW) 12:59:12 437.250
NANOSAT C BR1 01 Apr 13:00:26 13:01:54 11° 271° (W) 13:03:07 145.865
HUMSAT D 01 Apr 13:02:13 13:05:13 18° 292° (WNW) 13:08:05 437.325/437.525
50 SAT 01 Apr 13:10:10 13:13:11 20° 291° (WNW) 13:16:07 437.505
UKube-1 01 Apr 13:15:42 13:16:50 11° 296° (WNW) 13:17:43 .
Gurwin Techsat 1B 01 Apr 13:27:59 13:28:42 10° 60° (ENE) 13:29:45 435.225
O/OREOS (USA 219) 01 Apr 13:28:59 13:33:02 31° 61° (ENE) 13:37:04 437.305
ESTCUBE 1 01 Apr 13:32:01 13:35:55 28° 290° (WNW) 13:39:43 437.505/2401.250
YUBILEINY 01 Apr 13:38:57 13:47:13 49° 90° (E) 13:55:39 435.215
ITUPSAT 1 01 Apr 13:43:41 13:44:34 11° 88° (E) 13:45:48 437.325
TISAT 1 01 Apr 13:44:21 13:48:34 80° 100° (E) 13:52:47 437.305
ITAMSAT 1 01 Apr 13:55:17 13:59:21 24° 67° (ENE) 14:03:32 435.822/435.867
PCSat 01 Apr 14:06:54 14:11:45 36° 111° (ESE) 14:16:43 145.827
SPROUT 01 Apr 14:07:15 14:11:21 45° 287° (WNW) 14:15:26 437.525
CUBEBUG 1 01 Apr 14:13:33 14:15:12 12° 295° (WNW) 14:16:37 437.445
Oscar 19 01 Apr 14:20:26 14:25:30 64° 259° (WSW) 14:30:37 437.125/150
SWISSCUBE 01 Apr 14:27:08 14:31:32 36° 97° (E) 14:35:56 437.505
BEESAT 01 Apr 14:29:30 14:33:52 35° 97° (E) 14:38:15 436.000
AIST 1 01 Apr 14:40:14 14:42:46 16° 70° (ENE) 14:45:27
HORYU 2 01 Apr 14:56:09 14:58:29 15° 65° (ENE) 15:00:59 437.375
JAS-2 01 Apr 14:59:30 15:03:21 16° 56° (NE) 15:07:43 435.910
Gurwin Techsat 1B 01 Apr 15:02:37 15:07:56 82° 77° (ENE) 15:13:18 435.225
O/OREOS (USA 219) 01 Apr 15:08:41 15:12:19 23° 257° (WSW) 15:15:49 437.305
ITUPSAT 1 01 Apr 15:18:18 15:23:06 73° 285° (WNW) 15:27:51 437.325
KKS-1 01 Apr 15:20:14 15:23:36 21° 94° (E) 15:27:05 437.445
JUGNU 01 Apr 15:28:47 15:30:33 11° 183° (S) 15:32:17 437.505
ITAMSAT 1 01 Apr 15:33:45 15:38:40 40° 262° (W) 15:43:33 435.822/435.867
AO-7 01 Apr 15:35:26 15:42:59 42° 63° (ENE) 15:50:38 29.400- 29.500
YUBILEINY 01 Apr 15:36:24 15:44:21 35° 289° (WNW) 15:52:11 435.215
STARS 01 Apr 15:43:58 15:47:32 24° 95° (E) 15:51:11 437.465
PCSat 01 Apr 15:50:24 15:55:14 31° 308° (NW) 16:00:01 145.827
SWISSCUBE 01 Apr 16:05:27 16:09:12 23° 293° (WNW) 16:12:50 437.505
BEESAT 01 Apr 16:07:44 16:11:32 23° 293° (WNW) 16:15:14 436.000
AIST 1 01 Apr 16:16:40 16:20:41 39° 268° (W) 16:24:38
HORYU 2 01 Apr 16:30:25 16:34:44 52° 260° (W) 16:39:07 437.375
SRMSAT 01 Apr 16:34:31 16:36:23 11° 180° (S) 16:38:13 437.500
JAS-2 01 Apr 16:40:11 16:47:10 78° 74° (ENE) 16:54:55 435.910
Gurwin Techsat 1B 01 Apr 16:47:05 16:48:41 11° 273° (W) 16:49:54 435.225
KKS-1 01 Apr 16:56:20 17:00:19 32° 289° (WNW) 17:04:16 437.445
RS-15 01 Apr 17:01:45 17:03:42 11° 98° (E) 17:06:52 29.354- 29.394
MOZHAYETS 4 01 Apr 17:19:52 17:23:41 25° 94° (E) 17:27:32
STARS 01 Apr 17:20:12 17:24:00 28° 290° (WNW) 17:27:43 437.465
AO-7 01 Apr 17:27:55 17:35:46 43° 261° (W) 17:43:32 29.400- 29.500
SO-50 01 Apr 17:53:06 17:56:41 23° 112° (ESE) 18:00:27 436.795
BEESAT 3 01 Apr 17:56:55 17:59:32 16° 45° (NE) 18:02:14 437.485
GONETS M04 01 Apr 18:03:00 18:06:00 13° 78° (ENE) 18:09:43
AUBIESAT-1 01 Apr 18:16:55 18:20:50 25° 98° (E) 18:24:42 437.475
CUTE-I 01 Apr 18:20:34 18:25:37 45° 71° (ENE) 18:30:43 437.470
Cubesat XI-IV 01 Apr 18:21:47 18:26:53 47° 72° (ENE) 18:32:01 437.490
JAS-2 01 Apr 18:28:13 18:33:13 19° 275° (W) 18:38:06 435.910
M-CUBED/EXP-1 PRIME 01 Apr 18:43:55 18:48:41 55° 104° (ESE) 18:53:16 437.505
AIST 2 01 Apr 18:56:31 18:59:40 20° 46° (NE) 19:02:52 435.215
MOZHAYETS 4 01 Apr 18:56:51 19:00:56 30° 289° (WNW) 19:04:54
BEESAT 2 01 Apr 19:01:05 19:05:10 57° 56° (NE) 19:09:11 435.950
RS-15 01 Apr 19:03:34 19:14:15 66° 115° (ESE) 19:25:07 29.354- 29.394
CUBESAT XI-V 01 Apr 19:16:43 19:20:52 33° 96° (E) 19:25:02 437.345
HO-68 01 Apr 19:25:08 19:28:35 15° 55° (NE) 19:32:25 435.675
SO-50 01 Apr 19:32:40 19:37:01 39° 309° (NW) 19:41:30 436.795
BEESAT 3 01 Apr 19:33:55 19:37:55 51° 243° (WSW) 19:41:49 437.485
AUBIESAT-1 01 Apr 19:51:18 19:55:41 34° 295° (WNW) 19:59:52 437.475
STRAND 1 01 Apr 19:52:43 19:57:30 40° 98° (E) 20:02:17 437.568
GONETS M04 01 Apr 19:52:54 20:01:33 77° 95° (E) 20:10:18
BRITE-PL 01 Apr 19:56:08 19:59:09 18° 69° (ENE) 20:02:11 437.365/2234.400
CUTE-I 01 Apr 20:01:48 20:05:56 22° 267° (W) 20:09:57 437.470
Cubesat XI-IV 01 Apr 20:03:11 20:07:16 21° 268° (W) 20:11:11 437.490
CANX-2 01 Apr 20:08:22 20:10:21 13° 66° (ENE) 20:12:32 2200.000
PRISM 01 Apr 20:09:48 20:14:00 82° 283° (WNW) 20:18:07 437.425
M-CUBED/EXP-1 PRIME 01 Apr 20:19:52 20:23:08 18° 300° (WNW) 20:26:11 437.505
CUTE 1.7 + AOD 2 01 Apr 20:21:00 20:23:39 17° 68° (ENE) 20:26:28 437.475
GOMX 1 01 Apr 20:23:52 20:27:11 22° 70° (ENE) 20:30:31 467.674
AAUSAT CUBESAT 2 01 Apr 20:32:15 20:34:05 13° 66° (ENE) 20:36:08 437.432
AIST 2 01 Apr 20:34:28 20:38:28 41° 245° (WSW) 20:42:23 435.215
BEESAT 2 01 Apr 20:41:14 20:42:52 12° 251° (WSW) 20:44:18 435.950
SEEDS 01 Apr 20:43:55 20:47:18 25° 70° (ENE) 20:50:50 437.485
CINEMA 3 01 Apr 20:46:40 20:48:22 13° 66° (ENE) 20:50:16 145.822/145.860
CUBESAT XI-V 01 Apr 20:54:30 20:58:10 23° 291° (WNW) 21:01:43 437.345
CUSAT 1 01 Apr 20:57:26 20:59:58 34° 96° (E) 21:02:23 437.405
ISS 01 Apr 21:00:14 21:02:10 15° 131° (SE) 21:04:11 145.825
COMPASS 1 01 Apr 21:00:24 21:04:04 31° 71° (ENE) 21:07:48 437.405
HO-68 01 Apr 21:08:10 21:15:19 78° 73° (ENE) 21:22:32 435.675
RS-15 01 Apr 21:17:22 21:27:24 39° 319° (NW) 21:37:32 29.354- 29.394
DELFI C3 01 Apr 21:23:23 21:25:58 17° 68° (ENE) 21:28:43 145.870
Oscar 11 01 Apr 21:23:34 21:26:58 24° 69° (ENE) 21:30:28 145.826/435.025
DOVE 4 01 Apr 21:31:42 21:36:00 85° 77° (ENE) 21:40:11 437.250
STRAND 1 01 Apr 21:32:29 21:36:30 23° 293° (WNW) 21:40:23 437.568
BRITE-PL 01 Apr 21:33:10 21:37:32 38° 262° (W) 21:41:36 437.365/2234.400
CANX-2 01 Apr 21:41:46 21:45:54 51° 261° (W) 21:50:04 2200.000
FUNcube-1 01 Apr 21:42:12 21:44:59 18° 68° (ENE) 21:47:55 145.935
GONETS M04 01 Apr 21:52:57 21:59:30 22° 296° (WNW) 22:05:43
CUTE 1.7 + AOD 2 01 Apr 21:55:19 21:59:18 39° 263° (W) 22:03:19 437.475
UWE-3 01 Apr 21:55:25 21:59:05 32° 71° (ENE) 22:02:50 435.000/436.395/437.385
ZACube-1 01 Apr 21:55:51 21:59:16 26° 70° (ENE) 22:02:48 437.345
GOMX 1 01 Apr 22:01:24 22:05:17 29° 264° (W) 22:08:57 467.674
AAUSAT CUBESAT 2 01 Apr 22:05:15 22:09:20 52° 261° (W) 22:13:27 437.432
VELOX 1 01 Apr 22:07:22 22:09:15 13° 65° (ENE) 22:11:19 145.980
CUBEBUG 2 01 Apr 22:07:56 22:11:59 56° 75° (ENE) 22:16:06 437.445
DANDE 01 Apr 22:10:28 22:12:33 18° 284° (WNW) 22:14:28 436.750
AISAT 01 Apr 22:13:03 22:15:32 15° 66° (ENE) 22:18:12 437.250
HUMSAT D 01 Apr 22:17:12 22:20:22 22° 70° (ENE) 22:23:39 437.325/437.525
SEEDS 01 Apr 22:19:32 22:23:04 25° 266° (W) 22:26:35 437.485
50 SAT 01 Apr 22:21:00 22:23:16 16° 68° (ENE) 22:25:43 437.505
CINEMA 3 01 Apr 22:21:09 22:25:13 50° 261° (W) 22:29:17 145.822/145.860
UKube-1 01 Apr 22:30:32 22:34:42 50° 73° (ENE) 22:38:56 .
ISS 01 Apr 22:35:07 22:38:18 51° 325° (NW) 22:41:30 145.825
COMPASS 1 01 Apr 22:36:40 22:39:50 20° 267° (W) 22:42:55 437.405
DX 1 01 Apr 22:45:38 22:50:00 80° 76° (ENE) 22:54:22 434.975-435.025
ESTCUBE 1 01 Apr 22:54:18 22:57:41 22° 68° (ENE) 23:01:11 437.505/2401.250
PCSat 01 Apr 22:55:57 23:00:20 25° 49° (NE) 23:04:47 145.827
DELFI C3 01 Apr 22:57:08 23:00:54 36° 263° (W) 23:04:41 145.870
HO-68 01 Apr 22:59:09 23:03:54 18° 271° (W) 23:08:18 435.675
Oscar 11 01 Apr 22:59:18 23:03:03 28° 265° (W) 23:06:47 145.826/435.025
ANTELSAT 01 Apr 23:03:04 23:06:21 20° 92° (E) 23:09:48 437.575/2403.000
FUNcube-1 01 Apr 23:17:22 23:21:08 33° 263° (W) 23:24:55 145.935
POLYITAN 1 01 Apr 23:17:24 23:19:04 12° 90° (E) 23:20:58 437.675
SPROUT 01 Apr 23:28:06 23:28:34 10° 64° (ENE) 23:29:18 437.525
CUBEBUG 1 01 Apr 23:29:57 23:34:08 44° 73° (ENE) 23:38:19 437.445
ZACube-1 01 Apr 23:32:19 23:35:39 23° 266° (W) 23:38:55 437.345
UWE-3 01 Apr 23:32:48 23:35:46 18° 268° (W) 23:38:37 435.000/436.395/437.385
RS-15 01 Apr 23:37:19 23:44:19 18° 352° (N) 23:51:21 29.354- 29.394
VELOX 1 01 Apr 23:40:59 23:45:23 60° 259° (W) 23:49:46 145.980
AISAT 01 Apr 23:47:30 23:51:48 48° 261° (W) 23:56:06 437.250
CUBEBUG 2 01 Apr 23:48:20 23:49:11 10° 272° (W) 23:49:45 437.445
DUCHIFAT 1 01 Apr 23:50:15 23:53:53 28° 96° (E) 23:57:36 145.980
QB50P1 01 Apr 23:50:38 23:54:20 29° 96° (E) 23:58:06 145.935-145.965
YUBILEINY 01 Apr 23:51:20 23:57:42 22° 64° (ENE) 00:04:24 435.215
HUMSAT D 01 Apr 23:52:33 23:56:03 26° 265° (W) 23:59:31 437.325/437.525
50 SAT 01 Apr 23:54:18 23:57:55 36° 263° (W) 00:01:34 437.505
UNISAT 6 01 Apr 23:57:55 00:02:34 77° 103° (ESE) 00:07:16 437.425
TIGRISAT 02 Apr 00:06:21 00:10:59 89° 274° (W) 00:15:40 435.000
QB50P2 02 Apr 00:06:34 00:10:40 46° 99° (E) 00:14:47 145.880/145.840
UKube-1 02 Apr 00:09:00 00:11:13 13° 269° (W) 00:13:12 .
BUGSAT 1 02 Apr 00:13:18 00:17:02 36° 98° (E) 00:20:48 437.445
ISS 02 Apr 00:13:43 00:15:19 13° 344° (NNW) 00:16:53 145.825
ESTCUBE 1 02 Apr 00:30:12 00:34:23 35° 263° (W) 00:38:32 437.505/2401.250
POPSAT HIP 1 02 Apr 00:34:21 00:38:36 83° 286° (WNW) 00:42:51 437.405
TISAT 1 02 Apr 00:35:24 00:39:28 50° 74° (ENE) 00:43:33 437.305
PCSat 02 Apr 00:38:48 00:44:02 48° 247° (WSW) 00:49:11 145.827
ANTELSAT 02 Apr 00:38:58 00:43:18 39° 288° (WNW) 00:47:39 437.575/2403.000
NANOSAT C BR1 02 Apr 00:43:21 00:47:34 65° 284° (WNW) 00:51:45 145.865
ITUPSAT 1 02 Apr 00:49:21 00:51:13 12° 63° (ENE) 00:53:20 437.325
POLYITAN 1 02 Apr 00:51:13 00:55:22 51° 286° (WNW) 00:59:30 437.675
SPROUT 02 Apr 00:59:53 01:04:09 70° 259° (W) 01:08:26 437.525
CUBEBUG 1 02 Apr 01:08:05 01:10:46 15° 269° (W) 01:13:17 437.445
DUCHIFAT 1 02 Apr 01:26:18 01:29:37 22° 291° (WNW) 01:32:51 145.980
QB50P1 02 Apr 01:26:48 01:30:05 22° 291° (WNW) 01:33:17 145.935-145.965
SWISSCUBE 02 Apr 01:32:35 01:36:58 37° 71° (ENE) 01:41:24 437.505
BEESAT 02 Apr 01:34:53 01:39:13 36° 71° (ENE) 01:43:37 436.000
UNISAT 6 02 Apr 01:37:22 01:38:50 11° 296° (WNW) 01:40:02 437.425
QB50P2 02 Apr 01:43:49 01:46:14 15° 294° (WNW) 01:48:30 145.880/145.840
YUBILEINY 02 Apr 01:46:47 01:55:37 76° 266° (W) 02:04:19 435.215
BUGSAT 1 02 Apr 01:49:42 01:52:17 16° 292° (WNW) 01:54:44 437.445
RS-15 02 Apr 01:53:33 02:02:20 25° 27° (NNE) 02:11:41 29.354- 29.394
TISAT 1 02 Apr 02:13:43 02:15:37 12° 270° (W) 02:17:19 437.305
KKS-1 02 Apr 02:18:00 02:20:54 18° 67° (ENE) 02:23:58 437.445
ITUPSAT 1 02 Apr 02:23:46 02:28:35 73° 258° (WSW) 02:33:26 437.325
SO-50 02 Apr 02:25:14 02:28:49 20° 43° (NE) 02:32:30 436.795
Oscar 19 02 Apr 02:33:09 02:38:11 50° 99° (E) 02:43:14 437.125/150
STARS 02 Apr 02:40:26 02:43:32 20° 68° (ENE) 02:46:44 437.465
VERMONT LUNAR 02 Apr 03:05:49 03:06:50 11° 145° (SE) 03:07:57 437.305
SWISSCUBE 02 Apr 03:11:13 03:14:58 22° 267° (W) 03:18:36 437.505
BEESAT 02 Apr 03:13:24 03:17:11 22° 267° (W) 03:20:53 436.000
Gurwin Techsat 1B 02 Apr 03:20:22 03:25:13 36° 97° (E) 03:30:06 435.225
ISS 02 Apr 03:27:51 03:30:17 19° 24° (NNE) 03:32:44 145.825
O/OREOS (USA 219) 02 Apr 03:39:38 03:44:00 45° 106° (ESE) 03:48:24 437.305
AO-7 02 Apr 03:42:00 03:43:50 11° 85° (E) 03:46:29 29.400- 29.500
ITAMSAT 1 02 Apr 03:47:24 03:52:37 80° 105° (ESE) 03:57:47 435.822/435.867
YUBILEINY 02 Apr 03:47:26 03:51:07 13° 283° (WNW) 03:54:03 435.215
KKS-1 02 Apr 03:53:06 03:57:17 40° 262° (W) 04:01:28 437.445
JAS-2 02 Apr 03:55:02 03:57:46 13° 81° (E) 04:00:58 435.910
SO-50 02 Apr 04:04:55 04:09:48 60° 242° (WSW) 04:14:38 436.795
RS-15 02 Apr 04:05:51 04:17:21 72° 55° (NE) 04:29:23 29.354- 29.394
Oscar 19 02 Apr 04:13:29 04:17:13 20° 295° (WNW) 04:20:47 437.125/150
STARS 02 Apr 04:15:45 04:19:47 35° 263° (W) 04:23:48 437.465
PHONESAT 2.4 02 Apr 04:18:36 04:21:00 18° 148° (SSE) 04:23:28 2401.200-2431.200
MOZHAYETS 4 02 Apr 04:21:07 04:24:33 22° 68° (ENE) 04:28:08
HORYU 2 02 Apr 04:23:05 04:27:06 32° 96° (E) 04:31:09 437.375
VERMONT LUNAR 02 Apr 04:40:49 04:44:04 50° 159° (SSE) 04:47:19 437.305
AIST 1 02 Apr 04:44:18 04:48:39 64° 279° (W) 04:53:02
Gurwin Techsat 1B 02 Apr 05:00:36 05:05:05 27° 292° (WNW) 05:09:27 435.225
ISS 02 Apr 05:03:44 05:06:56 60° 222° (SW) 05:10:06 145.825
AUBIESAT-1 02 Apr 05:04:01 05:07:26 25° 63° (ENE) 05:11:09 437.475
O/OREOS (USA 219) 02 Apr 05:20:28 05:23:43 18° 304° (NW) 05:26:50 437.305
ITAMSAT 1 02 Apr 05:29:12 05:31:31 13° 298° (WNW) 05:33:33 435.822/435.867
AO-7 02 Apr 05:30:01 05:38:18 71° 105° (ESE) 05:46:36 29.400- 29.500
M-CUBED/EXP-1 PRIME 02 Apr 05:31:19 05:35:20 56° 69° (ENE) 05:39:44 437.505
JAS-2 02 Apr 05:36:37 05:44:19 80° 102° (ESE) 05:51:13 435.910
PHONESAT 2.4 02 Apr 05:55:29 05:58:59 69° 162° (SSE) 06:02:30 2401.200-2431.200
MOZHAYETS 4 02 Apr 05:57:19 06:01:35 36° 264° (W) 06:05:51
HORYU 2 02 Apr 06:00:01 06:03:37 23° 292° (WNW) 06:07:06 437.375
GONETS M04 02 Apr 06:04:59 06:12:52 36° 71° (ENE) 06:20:53
VERMONT LUNAR 02 Apr 06:18:23 06:21:43 68° 355° (N) 06:25:03 437.305
CUBESAT XI-V 02 Apr 06:19:04 06:23:05 29° 70° (ENE) 06:27:10 437.345
RS-15 02 Apr 06:19:15 06:29:09 32° 253° (WSW) 06:38:56 29.354- 29.394
AUBIESAT-1 02 Apr 06:38:34 06:42:10 28° 261° (W) 06:45:59 437.475
CUTE-I 02 Apr 06:39:46 06:43:25 19° 92° (E) 06:47:15 437.470
Cubesat XI-IV 02 Apr 06:41:08 06:44:55 20° 92° (E) 06:48:51 437.490
PRISM 02 Apr 06:58:38 07:02:47 61° 75° (ENE) 07:06:58 437.425
DANDE 02 Apr 07:06:02 07:08:37 15° 73° (ENE) 07:11:53 436.750
STRAND 1 02 Apr 07:07:18 07:12:17 52° 72° (ENE) 07:17:17 437.568
M-CUBED/EXP-1 PRIME 02 Apr 07:08:58 07:10:46 12° 268° (W) 07:12:24 437.505
JAS-2 02 Apr 07:23:00 07:28:28 21° 301° (WNW) 07:33:22 435.910
AO-7 02 Apr 07:23:53 07:30:30 27° 302° (WNW) 07:36:53 29.400- 29.500
CUSAT 1 02 Apr 07:32:08 07:36:35 37° 78° (ENE) 07:42:25 437.405
PHONESAT 2.4 02 Apr 07:33:51 07:37:22 66° 359° (N) 07:40:54 2401.200-2431.200
VERMONT LUNAR 02 Apr 07:56:10 07:59:31 84° 10° (N) 08:02:52 437.305
CUBESAT XI-V 02 Apr 07:56:31 08:00:31 27° 266° (W) 08:04:27 437.345
GONETS M04 02 Apr 08:01:35 08:09:58 48° 270° (W) 08:18:15
CUTE-I 02 Apr 08:18:42 08:23:51 50° 288° (WNW) 08:28:56 437.470
Cubesat XI-IV 02 Apr 08:20:12 08:25:19 48° 289° (WNW) 08:30:23 437.490
PRISM 02 Apr 08:38:06 08:38:45 10° 271° (W) 08:39:07 437.425
HO-68 02 Apr 08:39:43 08:43:09 14° 87° (E) 08:47:04 435.675
DANDE 02 Apr 08:47:26 08:51:54 56° 262° (W) 08:57:55 436.750
STRAND 1 02 Apr 08:48:22 08:51:51 17° 269° (W) 08:55:07 437.568
BEESAT 2 02 Apr 08:55:55 08:58:06 14° 110° (ESE) 09:00:28 435.950
PHONESAT 2.4 02 Apr 09:12:16 09:15:47 79° 198° (SSW) 09:19:20 2401.200-2431.200
CUSAT 1 02 Apr 09:15:12 09:19:21 25° 265° (W) 09:24:19 437.405
BEESAT 3 02 Apr 09:26:05 09:29:51 37° 115° (ESE) 09:33:42 437.485
CANX-2 02 Apr 09:28:35 09:32:20 29° 95° (E) 09:36:07 2200.000
DOVE 4 02 Apr 09:31:47 09:35:23 24° 95° (E) 09:39:14 437.250
VERMONT LUNAR 02 Apr 09:34:03 09:37:01 29° 207° (SSW) 09:39:58 437.305
BRITE-PL 02 Apr 09:38:04 09:42:20 66° 100° (E) 09:46:52 437.365/2234.400
CUTE 1.7 + AOD 2 02 Apr 09:41:41 09:45:41 36° 97° (E) 09:49:41 437.475
AAUSAT CUBESAT 2 02 Apr 09:49:58 09:53:31 26° 95° (E) 09:57:06 437.432
CUBEBUG 2 02 Apr 10:01:23 10:03:38 14° 90° (E) 10:06:09 437.445
ANTELSAT 02 Apr 10:02:20 10:04:35 15° 66° (ENE) 10:07:03 437.575/2403.000
GOMX 1 02 Apr 10:02:52 10:07:15 80° 101° (E) 10:11:55 467.674
SEEDS 02 Apr 10:04:20 10:08:34 56° 99° (E) 10:12:46 437.485
CINEMA 3 02 Apr 10:16:33 10:20:47 38° 98° (E) 10:25:11 145.822/145.860
COMPASS 1 02 Apr 10:20:10 10:24:25 70° 101° (E) 10:28:38 437.405
HO-68 02 Apr 10:24:42 10:31:57 90° 99° (E) 10:39:09 435.675
AIST 2 02 Apr 10:30:54 10:35:02 54° 117° (ESE) 10:39:14 435.215
BEESAT 2 02 Apr 10:31:54 10:35:53 48° 305° (NW) 10:39:55 435.950
DX 1 02 Apr 10:36:44 10:39:05 15° 91° (E) 10:41:38 434.975-435.025
DELFI C3 02 Apr 10:38:00 10:41:40 31° 96° (E) 10:45:21 145.870
DUCHIFAT 1 02 Apr 10:42:22 10:45:18 19° 68° (ENE) 10:48:22 145.980
QB50P1 02 Apr 10:42:59 10:46:02 20° 68° (ENE) 10:49:11 145.935-145.965
Oscar 11 02 Apr 10:47:08 10:51:26 55° 100° (E) 10:55:43 145.826/435.025
PHONESAT 2.4 02 Apr 10:51:04 10:53:51 21° 211° (SSW) 10:56:36 2401.200-2431.200
UNISAT 6 02 Apr 10:55:59 11:00:09 56° 74° (ENE) 11:04:26 437.425
